アサシン彗星

C/2017 O1 ( ASASSN )

English version
Home page
Updated on August 28, 2018

---------------------------------------------------------------------

・ プロフィール

発見日 2017年7月19日
発見光度 15.3等
発見者 All-Sky Automated Survey for Supernovae (ASASSN)

・ 写真集

・ 軌道要素

Epoch 2017 Oct. 14.0 TT = JDT 2458040.5
T 2017 Oct. 14.78527 TT                                 MPCW
q   1.4986859            (2000.0)            P               Q
z  +0.0023894      Peri.   20.90792     +0.72168404     -0.63351890
 +/-0.0000008      Node    25.80945     +0.50849163     +0.21172321
e   0.9964191      Incl.   39.84837     +0.46968970     +0.74419559
From 2704 observations 2017 July 19-2018 May 19, mean residual 0".4.

・ 星図

・ 光度変化

        m1 = 5.0 + 5 logΔ + 20.0 log r(t + 35)

---------------------------------------------------------------------

軌道要素はM.P.E.C. 2018-K95に掲載されたものです。
星図はステラナビゲータ Ver.10 (アストロアーツ) で作成したものです。
光度グラフはComet for Windowsで作成したものです。

---------------------------------------------------------------------

Copyright(C) Seiichi Yoshida (comet@aerith.net). All rights reserved.